QPF
0.00 0.00 0.00 0.00 0.00 0.00 0.00 0.00 0.00 0.00 0.01 0.00 0.00 0.00 0.00 0.00 0.04 0.08 0.03 0.02 0.01 0.00 0.00 0.00 0.00 0.00 0.00 0.00 0.00 0.00 0.00 0.00 0.00 0.00 0.00 0.00 0.00 0.00 0.00 0.00 0.00 0.00 0.00 0.00 0.00 0.00 0.00 0.00 0.00
0.00 0.00 0.00 0.00 0.00 0.00 0.00 0.00 0.00 0.00 0.03 0.00 0.00 0.00 0.00 0.01 0.00 0.02 0.10 0.12 0.07 0.01 0.00 0.00 0.01 0.01 0.00 0.00 0.00 0.00 0.00 0.00 0.00 0.00 0.00 0.00 0.00 0.00 0.00 0.00 0.00 0.00 0.00 0.00 0.00 0.00 0.00 0.00 0.00
0.00 0.00 0.00 0.00 0.00 0.00 0.00 0.00 0.00 0.00 0.00 0.01 0.00 0.00 0.00 0.01 0.09 0.13 0.11 0.09 0.10 0.08 0.02 0.01 0.00 0.01 0.00 0.00 0.00 0.00 0.00 0.00 0.00 0.00 0.00 0.00 0.00 0.00 0.00 0.00 0.00 0.00 0.00 0.00 0.00 0.00 0.00 0.00 0.00
0.00 0.00 0.00 0.00 0.00 0.00 0.00 0.01 0.03 0.00 0.00 0.00 0.01 0.01 0.00 0.00 0.04 0.05 0.03 0.03 0.17 0.31 0.20 0.03 0.06 0.03 0.01 0.01 0.00 0.00 0.00 0.00 0.00 0.00 0.00 0.00 0.00 0.00 0.00 0.00 0.00 0.00 0.00 0.00 0.00 0.00 0.00 0.00 0.00
0.00 0.00 0.00 0.00 0.00 0.00 0.00 0.00 0.00 0.01 0.00 0.00 0.00 0.00 0.01 0.04 0.00 0.00 0.01 0.09 0.15 0.28 0.16 0.03 0.08 0.05 0.01 0.00 0.00 0.00 0.00 0.00 0.00 0.00 0.00 0.00 0.00 0.00 0.00 0.00 0.00 0.00 0.00 0.00 0.00 0.00 0.00 0.00 0.00
0.00 0.00 0.00 0.00 0.00 0.00 0.00 0.00 0.00 0.01 0.00 0.00 0.00 0.00 0.05 0.03 0.01 0.04 0.14 0.29 0.35 0.22 0.16 0.04 0.09 0.02 0.00 0.00 0.00 0.00 0.00 0.00 0.00 0.00 0.00 0.00 0.00 0.00 0.00 0.00 0.00 0.00 0.00 0.00 0.00 0.00 0.00 0.00 0.00
0.00 0.00 0.00 0.00 0.00 0.00 0.00 0.00 0.01 0.00 0.00 0.00 0.00 0.03 0.05 0.07 0.12 0.20 0.19 0.24 0.27 0.17 0.08 0.02 0.01 0.00 0.00 0.00 0.00 0.00 0.00 0.00 0.00 0.00 0.00 0.00 0.00 0.00 0.00 0.00 0.00 0.00 0.00 0.00 0.00 0.00 0.00 0.00 0.00
0.00 0.00 0.00 0.00 0.00 0.00 0.00 0.00 0.00 0.00 0.00 0.00 0.00 0.01 0.02 0.05 0.07 0.14 0.19 0.29 0.26 0.13 0.05 0.00 0.00 0.00 0.00 0.00 0.00 0.00 0.00 0.00 0.00 0.00 0.00 0.00 0.00 0.00 0.00 0.00 0.00 0.00 0.00 0.00 0.00 0.00 0.00 0.00 0.00
0.00 0.00 0.00 0.00 0.01 0.01 0.01 0.00 0.00 0.00 0.00 0.00 0.00 0.00 0.00 0.03 0.02 0.07 0.09 0.11 0.09 0.13 0.00 0.00 0.00 0.00 0.00 0.00 0.00 0.00 0.00 0.00 0.00 0.00 0.00 0.00 0.00 0.00 0.00 0.00 0.00 0.00 0.00 0.00 0.00 0.00 0.00 0.00 0.00
0.00 0.00 0.00 0.00 0.01 0.02 0.01 0.00 0.00 0.00 0.00 0.00 0.00 0.00 0.00 0.00 0.01 0.02 0.01 0.01 0.03 0.00 0.00 0.00 0.00 0.00 0.00 0.00 0.00 0.00 0.00 0.00 0.00 0.00 0.00 0.00 0.00 0.00 0.00 0.00 0.00 0.00 0.00 0.00 0.00 0.00 0.00 0.00 0.00
0.00 0.00 0.00 0.00 0.00 0.00 0.00 0.00 0.00 0.00 0.00 0.00 0.00 0.00 0.01 0.01 0.00 0.01 0.01 0.00 0.00 0.00 0.00 0.00 0.00 0.00 0.00 0.00 0.00 0.00 0.00 0.00 0.00 0.00 0.00 0.00 0.00 0.00 0.00 0.00 0.00 0.00 0.00 0.00 0.00 0.00 0.00 0.00 0.00
0.00 0.00 0.00 0.00 0.00 0.00 0.00 0.00 0.00 0.00 0.00 0.00 0.00 0.00 0.00 0.00 0.00 0.00 0.00 0.00 0.00 0.00 0.00 0.00 0.00 0.00 0.00 0.00 0.00 0.00 0.00 0.00 0.03 0.04 0.01 0.00 0.01 0.01 0.00 0.00 0.00 0.00 0.00 0.00 0.00 0.00 0.00 0.00 0.00
0.00 0.00 0.00 0.00 0.00 0.00 0.00 0.00 0.00 0.00 0.00 0.00 0.00 0.00 0.00 0.00 0.00 0.00 0.00 0.00 0.00 0.00 0.00 0.00 0.00 0.00 0.00 0.00 0.00 0.00 0.00 0.05 0.10 0.10 0.01 0.01 0.00 0.00 0.00 0.00 0.00 0.00 0.00 0.00 0.00 0.00 0.00 0.00 0.00
0.00 0.00 0.00 0.00 0.00 0.00 0.00 0.00 0.00 0.00 0.00 0.00 0.00 0.00 0.00 0.00 0.00 0.00 0.00 0.00 0.00 0.00 0.00 0.00 0.00 0.00 0.00 0.00 0.01 0.03 0.04 0.06 0.02 0.00 0.04 0.02 0.00 0.00 0.00 0.00 0.00 0.00 0.00 0.00 0.00 0.00 0.00 0.00 0.00
0.00 0.00 0.00 0.00 0.00 0.00 0.00 0.00 0.00 0.00 0.00 0.00 0.00 0.00 0.00 0.00 0.00 0.00 0.00 0.00 0.00 0.00 0.00 0.00 0.00 0.00 0.00 0.00 0.00 0.01 0.01 0.00 0.00 0.01 0.03 0.04 0.03 0.03 0.01 0.00 0.00 0.00 0.00 0.00 0.00 0.00 0.00 0.00 0.00
0.00 0.00 0.00 0.00 0.00 0.00 0.00 0.00 0.00 0.00 0.00 0.00 0.00 0.00 0.00 0.00 0.00 0.00 0.00 0.00 0.00 0.00 0.00 0.00 0.01 0.00 0.00 0.01 0.02 0.01 0.00 0.00 0.00 0.00 0.03 0.05 0.02 0.00 0.00 0.00 0.00 0.00 0.00 0.00 0.00 0.00 0.00 0.00 0.00
0.00 0.00 0.00 0.00 0.00 0.00 0.00 0.00 0.00 0.00 0.00 0.00 0.00 0.00 0.00 0.00 0.00 0.00 0.00 0.00 0.00 0.00 0.00 0.00 0.00 0.06 0.08 0.02 0.00 0.00 0.00 0.00 0.00 0.01 0.00 0.00 0.00 0.00 0.00 0.00 0.00 0.00 0.00 0.00 0.00 0.00 0.00 0.00 0.00
0.00 0.00 0.00 0.00 0.00 0.00 0.00 0.00 0.00 0.00 0.00 0.00 0.00 0.00 0.00 0.00 0.00 0.00 0.00 0.00 0.00 0.00 0.00 0.00 0.00 0.06 0.08 0.04 0.01 0.00 0.00 0.00 0.00 0.00 0.00 0.00 0.00 0.00 0.00 0.00 0.00 0.00 0.00 0.00 0.00 0.00 0.00 0.00 0.00
0.00 0.00 0.00 0.00 0.00 0.00 0.00 0.00 0.00 0.00 0.00 0.00 0.00 0.00 0.00 0.00 0.00 0.00 0.00 0.00 0.00 0.00 0.00 0.00 0.01 0.04 0.02 0.01 0.00 0.00 0.00 0.00 0.00 0.00 0.00 0.00 0.00 0.00 0.00 0.00 0.00 0.00 0.00 0.00 0.00 0.00 0.00 0.00 0.00
0.00 0.00 0.00 0.00 0.00 0.00 0.00 0.00 0.00 0.00 0.00 0.00 0.00 0.00 0.00 0.00 0.00 0.00 0.00 0.00 0.00 0.00 0.00 0.00 0.01 0.01 0.00 0.00 0.00 0.00 0.00 0.00 0.00 0.00 0.00 0.00 0.00 0.00 0.00 0.00 0.00 0.00 0.00 0.00 0.00 0.00 0.00 0.00 0.00
0.00 0.00 0.00 0.00 0.00 0.00 0.00 0.00 0.00 0.00 0.00 0.00 0.00 0.00 0.00 0.00 0.00 0.00 0.00 0.00 0.00 0.00 0.00 0.00 0.00 0.00 0.00 0.00 0.00 0.00 0.00 0.00 0.00 0.00 0.00 0.00 0.00 0.00 0.00 0.00 0.00 0.00 0.00 0.00 0.00 0.00 0.00 0.00 0.00
0.00 0.00 0.00 0.00 0.00 0.00 0.00 0.00 0.00 0.00 0.00 0.00 0.00 0.00 0.00 0.00 0.00 0.00 0.00 0.00 0.00 0.00 0.00 0.00 0.00 0.00 0.00 0.00 0.00 0.00 0.00 0.00 0.00 0.00 0.00 0.00 0.00 0.00 0.00 0.00 0.00 0.00 0.00 0.00 0.00 0.00 0.00 0.00 0.00
0.00 0.00 0.00 0.00 0.00 0.00 0.00 0.00 0.00 0.00 0.00 0.00 0.00 0.00 0.00 0.00 0.00 0.00 0.00 0.00 0.00 0.00 0.00 0.00 0.00 0.00 0.00 0.00 0.00 0.00 0.00 0.00 0.00 0.00 0.00 0.00 0.00 0.00 0.00 0.00 0.00 0.00 0.00 0.00 0.00 0.00 0.00 0.00 0.00
0.00 0.00 0.00 0.00 0.00 0.00 0.00 0.00 0.00 0.00 0.00 0.00 0.00 0.00 0.00 0.00 0.00 0.00 0.00 0.00 0.00 0.00 0.00 0.00 0.00 0.00 0.00 0.00 0.00 0.00 0.00 0.00 0.00 0.00 0.00 0.00 0.00 0.00 0.00 0.00 0.00 0.00 0.00 0.00 0.00 0.00 0.01 0.01 0.02
0.00 0.00 0.00 0.00 0.00 0.00 0.00 0.00 0.00 0.00 0.00 0.00 0.00 0.00 0.00 0.00 0.00 0.00 0.00 0.00 0.00 0.00 0.00 0.00 0.00 0.00 0.00 0.00 0.00 0.00 0.00 0.00 0.00 0.00 0.00 0.00 0.00 0.00 0.00 0.00 0.00 0.00 0.00 0.00 0.00 0.00 0.01 0.02 0.03
0.00 0.00 0.00 0.00 0.00 0.00 0.00 0.00 0.00 0.00 0.00 0.00 0.00 0.00 0.00 0.00 0.00 0.00 0.00 0.00 0.00 0.00 0.00 0.00 0.00 0.00 0.00 0.00 0.00 0.00 0.00 0.00 0.00 0.00 0.00 0.00 0.00 0.00 0.00 0.00 0.00 0.00 0.00 0.00 0.00 0.00 0.01 0.02 0.03
0.00 0.00 0.00 0.00 0.00 0.00 0.00 0.00 0.00 0.00 0.00 0.00 0.00 0.00 0.00 0.00 0.00 0.00 0.00 0.00 0.00 0.00 0.00 0.00 0.00 0.00 0.00 0.00 0.00 0.00 0.00 0.00 0.00 0.00 0.00 0.00 0.00 0.00 0.00 0.00 0.00 0.00 0.00 0.00 0.00 0.00 0.01 0.03 0.02
0.00 0.00 0.00 0.00 0.00 0.00 0.00 0.00 0.00 0.00 0.00 0.00 0.00 0.00 0.00 0.00 0.00 0.00 0.00 0.00 0.00 0.00 0.00 0.00 0.00 0.00 0.00 0.00 0.00 0.00 0.00 0.00 0.00 0.00 0.00 0.00 0.00 0.00 0.00 0.00 0.00 0.00 0.00 0.00 0.00 0.00 0.01 0.02 0.02
0.00 0.00 0.00 0.00 0.00 0.00 0.00 0.00 0.00 0.00 0.00 0.00 0.00 0.00 0.00 0.00 0.00 0.00 0.00 0.00 0.00 0.00 0.00 0.00 0.00 0.00 0.00 0.00 0.00 0.00 0.00 0.00 0.00 0.00 0.00 0.00 0.00 0.00 0.00 0.00 0.00 0.00 0.00 0.00 0.00 0.01 0.01 0.01 0.00
0.00 0.00 0.00 0.00 0.00 0.00 0.00 0.00 0.00 0.00 0.00 0.00 0.00 0.00 0.00 0.00 0.00 0.00 0.00 0.00 0.00 0.00 0.00 0.00 0.00 0.00 0.00 0.00 0.00 0.00 0.00 0.00 0.00 0.00 0.00 0.00 0.00 0.00 0.00 0.00 0.00 0.00 0.00 0.00 0.00 0.00 0.00 0.00 0.00
MSLP
1011.75 1011.03 1009.64 1008.73 1007.64 1005.14 1003.09 1001.52 1001.76 1004.10 1005.30 1006.37 1006.27 1006.00 1006.13 1007.55 1008.16 1009.44 1010.90 1011.92 1012.17 1013.21 1014.10 1015.25 1015.93 1016.15 1016.55 1016.94 1017.33 1017.74 1018.05 1018.54 1018.83 1019.10 1019.30 1019.41 1019.46 1019.51 1019.55 1019.64 1019.77 1019.94 1019.94 1020.12 1020.21 1020.33 1020.13 1020.06 1019.92
1010.24 1009.82 1009.13 1007.28 1005.96 1003.42 1001.64 1001.78 1003.08 1005.91 1008.03 1008.03 1008.25 1007.47 1008.01 1009.22 1010.12 1011.37 1012.00 1012.22 1012.49 1013.34 1014.31 1015.10 1016.05 1016.77 1016.79 1017.32 1017.60 1018.08 1018.32 1018.78 1019.11 1019.47 1019.66 1019.74 1019.85 1019.93 1019.95 1020.06 1020.11 1020.20 1020.25 1020.23 1020.45 1020.47 1020.45 1020.39 1020.21
1010.91 1009.70 1008.14 1006.15 1004.74 1003.02 1002.25 1003.22 1005.13 1006.76 1007.38 1008.22 1008.69 1009.07 1010.00 1011.15 1011.71 1012.40 1013.15 1013.00 1013.36 1013.64 1014.38 1015.71 1016.24 1016.88 1017.18 1017.62 1017.96 1018.35 1018.72 1019.01 1019.40 1019.80 1019.97 1020.15 1020.30 1020.32 1020.44 1020.57 1020.57 1020.65 1020.63 1020.73 1020.84 1020.75 1020.87 1020.83 1020.56
1009.61 1008.89 1007.76 1005.56 1003.59 1002.75 1003.49 1005.26 1006.79 1006.70 1007.58 1008.72 1009.12 1010.04 1011.57 1012.68 1012.78 1012.76 1013.48 1013.71 1014.27 1014.49 1014.99 1016.05 1017.12 1017.02 1017.36 1017.74 1018.32 1018.72 1019.03 1019.41 1019.75 1020.06 1020.30 1020.46 1020.72 1020.76 1020.92 1020.89 1020.91 1020.98 1021.21 1021.13 1021.15 1021.08 1021.07 1021.03 1020.66
1009.20 1007.25 1005.72 1004.45 1003.47 1003.27 1004.36 1005.12 1005.89 1007.18 1007.56 1008.50 1008.68 1010.33 1011.77 1012.52 1013.04 1013.82 1013.86 1014.10 1014.61 1015.32 1015.52 1016.44 1017.37 1017.35 1017.96 1018.13 1018.76 1018.95 1019.41 1019.77 1020.19 1020.42 1020.67 1020.87 1021.11 1021.23 1021.24 1021.22 1021.48 1021.47 1021.51 1021.59 1021.54 1021.46 1021.35 1021.26 1021.05
1007.71 1006.52 1004.88 1003.43 1002.88 1004.07 1004.74 1005.71 1005.74 1007.01 1007.05 1008.26 1008.78 1009.41 1011.34 1012.14 1013.24 1013.95 1015.08 1015.27 1015.20 1015.43 1016.06 1016.97 1017.56 1017.95 1018.20 1018.54 1018.90 1019.48 1019.71 1020.10 1020.47 1020.77 1020.96 1021.11 1021.46 1021.63 1021.65 1021.60 1021.82 1021.82 1021.81 1021.85 1021.92 1021.77 1021.73 1021.65 1021.51
1007.08 1005.52 1004.46 1003.46 1003.61 1004.81 1005.11 1005.84 1006.22 1006.10 1007.18 1008.21 1008.78 1009.93 1011.48 1012.45 1013.32 1014.46 1015.74 1015.98 1014.90 1015.64 1016.06 1016.61 1017.36 1018.49 1018.75 1018.95 1019.46 1019.79 1020.09 1020.42 1020.85 1021.19 1021.33 1021.51 1021.74 1021.82 1021.94 1022.07 1022.04 1022.03 1022.25 1022.08 1022.15 1021.90 1021.82 1021.74 1021.60
1006.40 1005.42 1004.21 1003.95 1005.14 1005.06 1005.56 1005.88 1006.84 1006.62 1007.59 1008.46 1008.82 1009.68 1011.03 1012.08 1013.31 1014.93 1015.53 1016.26 1015.78 1015.44 1015.98 1016.34 1017.36 1018.31 1018.66 1019.30 1019.77 1019.92 1020.30 1020.86 1021.13 1021.41 1021.61 1021.70 1021.74 1021.87 1021.99 1022.00 1022.18 1022.27 1022.47 1022.29 1022.36 1022.26 1021.99 1021.79 1021.47
1006.82 1005.51 1003.86 1004.73 1006.45 1006.50 1006.52 1007.06 1007.39 1007.79 1008.06 1008.92 1009.31 1009.82 1010.68 1012.52 1013.58 1014.61 1015.52 1015.72 1015.62 1015.27 1015.46 1015.87 1016.69 1017.42 1017.91 1018.83 1019.80 1020.16 1020.80 1021.29 1021.21 1021.54 1021.74 1021.67 1021.05 1021.41 1021.70 1022.25 1022.52 1022.54 1022.57 1022.46 1022.55 1022.32 1021.94 1021.73 1021.46
1006.40 1005.23 1003.82 1004.76 1007.13 1009.56 1007.66 1007.58 1007.19 1007.61 1007.84 1008.55 1009.52 1010.42 1011.60 1012.90 1013.69 1014.38 1014.82 1015.10 1015.35 1015.41 1015.90 1016.57 1017.05 1017.85 1018.03 1018.30 1019.49 1020.03 1020.50 1020.69 1020.55 1020.71 1021.33 1020.64 1020.96 1021.24 1021.32 1022.22 1022.59 1022.48 1022.57 1022.42 1022.34 1022.26 1021.79 1021.36 1020.86
1006.11 1004.99 1004.34 1004.77 1005.86 1008.38 1006.99 1007.02 1007.09 1006.76 1007.04 1007.31 1008.72 1010.34 1012.37 1013.04 1013.14 1013.52 1013.86 1014.50 1014.87 1015.50 1016.39 1017.05 1017.86 1018.54 1018.50 1018.86 1019.15 1019.30 1019.79 1020.08 1020.51 1020.69 1020.69 1020.93 1021.06 1021.24 1021.22 1021.35 1021.63 1021.65 1022.12 1021.44 1021.70 1021.55 1021.43 1021.70 1021.60
1005.66 1005.27 1005.10 1004.98 1005.46 1006.45 1007.04 1006.37 1006.12 1006.92 1009.04 1006.63 1007.69 1010.39 1012.44 1012.61 1012.85 1012.93 1013.22 1013.87 1014.49 1015.51 1016.46 1017.26 1017.93 1018.60 1018.54 1018.90 1018.91 1019.18 1019.19 1019.76 1019.92 1020.56 1021.02 1021.02 1021.19 1021.39 1021.28 1021.17 1021.50 1021.81 1021.81 1022.11 1021.90 1021.71 1021.93 1021.75 1021.63
1005.72 1005.15 1005.69 1006.02 1005.83 1006.42 1006.94 1006.22 1006.11 1007.07 1007.54 1007.57 1008.27 1010.55 1011.52 1012.11 1012.46 1012.51 1012.89 1013.63 1014.46 1015.50 1016.65 1017.42 1018.21 1018.81 1019.05 1018.86 1019.26 1019.29 1019.65 1020.55 1020.96 1021.40 1021.59 1021.63 1021.45 1021.68 1021.66 1021.88 1021.83 1022.21 1022.17 1022.32 1022.25 1022.20 1022.15 1021.86 1021.60
1005.71 1005.75 1006.18 1006.18 1006.36 1006.30 1006.10 1006.18 1006.59 1007.19 1007.74 1008.19 1009.29 1010.36 1011.20 1011.58 1012.02 1012.45 1012.96 1013.79 1014.80 1015.51 1016.61 1017.59 1018.22 1018.71 1018.88 1019.23 1019.79 1020.40 1020.97 1021.24 1021.60 1022.07 1022.49 1022.35 1022.04 1021.92 1021.98 1022.12 1022.23 1022.55 1023.03 1023.09 1022.88 1022.82 1022.57 1022.07 1021.71
1006.24 1006.19 1006.47 1006.70 1006.22 1006.41 1006.35 1006.66 1008.08 1007.97 1008.05 1008.84 1009.63 1010.32 1010.93 1011.38 1011.88 1012.45 1013.05 1014.00 1014.65 1015.46 1016.60 1017.55 1018.23 1018.47 1019.42 1020.07 1020.84 1021.54 1021.77 1021.84 1022.39 1022.63 1022.81 1022.79 1022.62 1022.73 1022.51 1022.98 1023.39 1023.52 1023.49 1023.35 1023.09 1023.05 1022.80 1022.24 1021.82
1006.25 1006.30 1006.15 1006.03 1006.09 1006.04 1006.26 1006.29 1007.48 1008.05 1008.33 1008.67 1009.38 1010.06 1010.69 1011.18 1011.66 1012.45 1013.34 1013.88 1014.53 1015.25 1016.60 1017.64 1018.56 1019.37 1020.28 1020.96 1021.68 1022.45 1022.54 1022.84 1022.95 1023.14 1023.18 1023.50 1023.26 1023.33 1023.39 1023.33 1023.68 1023.85 1023.51 1023.51 1023.39 1023.13 1022.85 1022.69 1022.39
1006.04 1005.31 1005.42 1005.64 1005.57 1005.87 1006.04 1006.18 1007.35 1007.90 1008.03 1008.45 1009.12 1009.82 1010.31 1010.96 1011.65 1012.43 1013.25 1013.79 1014.30 1015.31 1016.89 1018.44 1019.20 1019.81 1020.51 1021.31 1021.79 1022.29 1023.73 1023.17 1023.18 1023.42 1023.37 1023.39 1023.80 1023.76 1023.46 1023.56 1023.89 1023.75 1023.55 1023.57 1023.55 1023.37 1023.36 1022.95 1022.70
1005.30 1004.97 1004.71 1004.90 1005.74 1005.87 1006.11 1006.17 1006.99 1007.55 1007.82 1008.25 1009.06 1009.84 1010.50 1011.06 1011.79 1012.70 1013.63 1013.95 1014.20 1015.30 1017.32 1018.37 1019.07 1019.88 1020.31 1020.98 1021.44 1022.26 1022.67 1023.46 1023.45 1023.36 1023.46 1023.41 1023.68 1023.67 1023.46 1023.73 1024.02 1023.79 1023.57 1023.76 1023.94 1024.02 1023.70 1023.17 1022.79
1004.75 1004.47 1004.27 1004.48 1005.62 1005.88 1005.77 1006.10 1007.03 1007.45 1007.84 1008.11 1008.63 1009.39 1010.16 1010.98 1011.94 1013.29 1013.83 1014.25 1014.45 1015.47 1017.37 1018.29 1019.04 1019.80 1020.40 1020.83 1021.18 1022.33 1022.62 1023.03 1022.93 1023.11 1022.89 1023.19 1023.34 1023.58 1023.68 1023.48 1023.71 1023.90 1023.65 1023.90 1024.10 1024.03 1023.60 1023.14 1023.02
1004.77 1004.49 1004.59 1005.03 1005.83 1005.85 1005.57 1005.69 1006.69 1007.13 1007.37 1007.61 1008.31 1008.97 1009.85 1010.65 1012.13 1013.29 1014.03 1014.48 1014.80 1015.84 1017.40 1018.32 1018.91 1019.71 1019.67 1020.02 1020.40 1020.86 1021.41 1021.74 1021.68 1022.18 1022.79 1022.86 1023.33 1023.52 1023.49 1023.75 1023.64 1023.72 1023.79 1023.85 1023.79 1023.79 1023.62 1023.51 1023.28
1005.04 1004.80 1005.56 1004.85 1005.84 1005.90 1005.23 1005.11 1006.12 1006.90 1007.08 1007.45 1008.10 1008.75 1009.48 1010.49 1011.90 1012.91 1013.77 1014.70 1015.47 1016.30 1017.03 1017.58 1018.40 1018.69 1019.06 1019.44 1019.79 1020.09 1020.58 1021.17 1021.59 1022.08 1022.56 1022.89 1023.32 1023.32 1023.44 1023.59 1023.85 1023.97 1023.94 1023.72 1023.77 1023.73 1023.68 1023.43 1023.50
1005.38 1005.41 1005.40 1005.37 1005.49 1004.84 1005.01 1003.77 1004.66 1005.95 1006.83 1007.91 1008.50 1008.91 1009.26 1010.32 1011.30 1012.49 1013.43 1014.43 1015.29 1016.02 1016.54 1017.02 1017.48 1018.07 1018.74 1019.28 1019.55 1019.97 1019.97 1020.19 1020.50 1021.14 1021.71 1022.44 1023.25 1023.30 1023.38 1023.55 1023.89 1023.94 1023.88 1023.81 1023.56 1023.30 1023.70 1023.60 1023.12
1006.08 1006.02 1005.72 1005.52 1005.00 1004.79 1004.58 1004.48 1004.21 1005.39 1005.98 1006.97 1007.89 1008.96 1009.69 1010.37 1011.39 1012.13 1012.86 1014.23 1015.06 1015.70 1016.18 1016.50 1017.09 1017.66 1018.60 1019.08 1019.32 1019.80 1019.77 1020.25 1020.93 1021.45 1021.98 1022.61 1022.75 1023.03 1023.31 1023.44 1023.63 1023.83 1023.76 1023.57 1023.53 1023.34 1023.48 1023.43 1023.27
1006.50 1006.43 1006.31 1006.08 1005.60 1005.09 1004.68 1004.52 1003.46 1004.10 1004.80 1005.79 1007.71 1008.89 1009.64 1010.58 1011.48 1012.17 1013.11 1013.88 1014.59 1015.42 1015.92 1016.50 1017.06 1017.75 1018.66 1019.20 1019.56 1019.90 1020.23 1020.69 1021.20 1021.51 1021.90 1022.09 1022.33 1022.51 1022.74 1022.96 1023.13 1023.42 1023.45 1023.26 1023.07 1022.92 1022.92 1023.03 1023.38
1006.62 1006.25 1005.86 1005.85 1005.60 1005.50 1005.45 1005.13 1004.40 1004.64 1005.83 1005.98 1007.46 1008.78 1009.89 1010.89 1011.55 1012.17 1013.07 1013.81 1014.83 1015.68 1016.38 1017.00 1017.37 1018.03 1018.79 1019.25 1019.75 1020.28 1020.78 1021.26 1021.57 1021.89 1022.03 1022.44 1022.55 1022.62 1022.84 1023.32 1023.57 1023.50 1023.41 1023.27 1023.06 1022.76 1022.47 1022.77 1023.04
1006.33 1006.17 1006.12 1006.26 1006.38 1005.84 1005.78 1005.02 1004.38 1005.39 1006.38 1006.81 1007.66 1008.80 1010.06 1011.01 1011.66 1012.29 1013.13 1013.88 1014.96 1015.90 1016.57 1016.94 1017.40 1018.04 1018.83 1019.47 1019.93 1020.63 1021.17 1021.51 1021.72 1022.04 1022.50 1022.74 1022.87 1022.99 1023.29 1023.56 1023.54 1023.43 1023.23 1022.96 1022.71 1022.30 1021.99 1022.03 1022.67
1006.49 1006.86 1007.22 1007.32 1008.23 1007.67 1006.17 1004.49 1005.31 1006.03 1006.61 1007.06 1007.74 1008.79 1009.94 1010.79 1011.57 1012.16 1013.01 1013.83 1014.76 1015.60 1016.27 1016.78 1017.20 1018.02 1019.01 1019.78 1020.47 1021.05 1021.33 1021.39 1021.69 1022.30 1022.71 1022.78 1023.08 1023.16 1023.30 1023.53 1023.47 1023.30 1023.09 1022.81 1022.48 1022.04 1021.66 1022.03 1022.40
1007.33 1007.25 1007.49 1007.81 1007.91 1007.11 1005.08 1004.68 1004.06 1005.78 1006.32 1007.04 1007.66 1008.59 1009.61 1010.45 1011.19 1011.92 1012.80 1013.80 1014.53 1015.43 1016.24 1016.82 1017.30 1018.30 1019.51 1020.14 1020.78 1021.07 1021.18 1021.62 1021.92 1022.36 1022.64 1022.91 1023.19 1023.45 1023.44 1023.44 1023.31 1023.14 1022.86 1022.52 1022.12 1022.05 1022.21 1022.37 1022.53
1007.18 1007.29 1007.64 1007.70 1007.93 1007.63 1006.49 1004.87 1005.28 1005.73 1006.19 1006.88 1007.43 1008.20 1009.08 1009.90 1010.70 1011.62 1012.62 1013.64 1014.48 1015.37 1016.49 1017.23 1017.74 1018.62 1019.58 1020.27 1020.83 1021.15 1021.45 1021.67 1021.97 1022.26 1022.60 1022.96 1023.32 1023.33 1023.33 1023.22 1023.11 1022.87 1022.54 1022.68 1022.85 1022.62 1022.45 1022.39 1022.52
1006.86 1006.60 1007.05 1007.74 1007.91 1008.22 1007.82 1006.32 1006.10 1006.21 1006.31 1006.78 1007.22 1007.74 1008.55 1009.34 1010.07 1011.11 1012.27 1013.34 1014.44 1015.47 1016.28 1017.23 1018.07 1018.79 1019.39 1020.17 1020.68 1020.92 1021.32 1021.52 1021.81 1022.16 1022.60 1022.93 1023.21 1023.24 1023.16 1023.05 1022.96 1022.86 1023.02 1023.02 1022.95 1022.97 1023.08 1022.87 1022.73
Thickness
5714 5721 5735 5732 5712 5731 5736 5765 5774 5742 5732 5739 5749 5748 5742 5736 5724 5710 5731 5725 5725 5717 5708 5698 5695 5692 5688 5684 5679 5674 5671 5666 5665 5663 5662 5662 5663 5663 5663 5662 5661 5659 5658 5655 5654 5651 5652 5652 5651
5720 5725 5727 5728 5709 5724 5757 5770 5743 5720 5710 5724 5726 5734 5724 5712 5723 5712 5711 5718 5717 5709 5699 5694 5688 5681 5681 5675 5673 5668 5666 5662 5660 5657 5657 5658 5658 5658 5659 5658 5657 5655 5654 5653 5650 5649 5647 5647 5647
5711 5722 5713 5716 5718 5726 5740 5745 5725 5718 5725 5717 5712 5720 5708 5697 5705 5702 5704 5707 5703 5699 5692 5681 5679 5673 5672 5669 5666 5662 5659 5658 5656 5652 5652 5652 5652 5653 5652 5651 5650 5648 5648 5645 5643 5643 5641 5640 5641
5712 5713 5716 5706 5720 5748 5738 5713 5711 5717 5718 5713 5707 5695 5697 5696 5694 5701 5698 5698 5692 5689 5681 5672 5663 5667 5667 5664 5659 5656 5654 5652 5650 5649 5647 5648 5647 5647 5646 5646 5645 5642 5639 5639 5638 5637 5636 5636 5638
5711 5717 5705 5712 5725 5736 5733 5729 5724 5707 5708 5704 5709 5687 5684 5693 5695 5688 5692 5693 5687 5680 5673 5665 5657 5661 5657 5657 5653 5652 5648 5647 5644 5643 5644 5643 5641 5641 5641 5641 5637 5636 5634 5632 5631 5630 5630 5630 5631
5701 5715 5704 5716 5734 5726 5728 5725 5724 5707 5711 5702 5698 5697 5684 5696 5690 5688 5680 5678 5677 5674 5662 5654 5652 5652 5653 5652 5650 5645 5644 5643 5641 5641 5641 5640 5637 5634 5634 5634 5631 5630 5629 5627 5625 5625 5623 5623 5624
5697 5708 5707 5728 5721 5712 5716 5726 5710 5704 5703 5694 5701 5678 5681 5683 5687 5679 5667 5665 5676 5662 5657 5652 5650 5647 5647 5646 5642 5641 5641 5640 5637 5634 5635 5633 5630 5630 5628 5626 5626 5625 5621 5621 5619 5620 5619 5619 5619
5710 5712 5712 5723 5702 5705 5716 5718 5711 5709 5694 5704 5703 5677 5671 5682 5683 5670 5666 5660 5664 5661 5655 5656 5650 5644 5644 5640 5640 5642 5640 5635 5633 5631 5630 5629 5629 5626 5624 5623 5622 5620 5617 5616 5613 5612 5613 5611 5612
5713 5698 5710 5702 5691 5692 5704 5695 5704 5705 5694 5690 5691 5688 5688 5679 5674 5665 5659 5655 5655 5660 5659 5660 5655 5652 5649 5644 5640 5638 5633 5628 5631 5628 5626 5625 5627 5623 5620 5618 5614 5613 5611 5610 5608 5607 5608 5607 5607
5697 5697 5718 5716 5683 5647 5686 5692 5696 5692 5690 5684 5682 5686 5680 5673 5668 5661 5659 5658 5656 5657 5657 5655 5652 5646 5647 5647 5640 5634 5632 5630 5631 5629 5623 5627 5623 5621 5620 5612 5609 5609 5607 5606 5605 5603 5604 5603 5602
5699 5697 5719 5719 5710 5674 5696 5694 5701 5699 5693 5695 5680 5678 5668 5667 5671 5668 5666 5662 5659 5658 5654 5651 5645 5642 5644 5642 5640 5639 5635 5632 5628 5624 5624 5622 5619 5617 5615 5612 5609 5607 5604 5606 5602 5600 5598 5594 5591
5691 5707 5710 5714 5714 5697 5691 5704 5701 5699 5661 5713 5706 5685 5667 5666 5668 5671 5670 5667 5665 5659 5653 5650 5646 5641 5642 5639 5639 5638 5637 5631 5628 5620 5617 5616 5613 5610 5610 5609 5605 5601 5598 5594 5592 5591 5587 5584 5582
5691 5703 5701 5700 5704 5699 5699 5700 5700 5691 5700 5707 5702 5682 5676 5672 5671 5675 5675 5672 5668 5658 5650 5647 5642 5638 5636 5638 5634 5633 5629 5619 5616 5610 5609 5607 5607 5602 5601 5597 5595 5590 5588 5584 5582 5579 5575 5574 5573
5698 5697 5691 5695 5689 5697 5697 5700 5698 5697 5698 5695 5689 5680 5678 5676 5674 5674 5672 5667 5661 5659 5651 5645 5641 5637 5635 5632 5627 5621 5614 5611 5606 5602 5598 5598 5598 5597 5592 5589 5587 5581 5575 5571 5569 5565 5563 5563 5564
5693 5680 5685 5681 5693 5689 5699 5684 5668 5691 5695 5686 5682 5680 5678 5677 5677 5673 5672 5665 5662 5657 5652 5644 5640 5637 5629 5623 5616 5609 5605 5603 5598 5594 5590 5588 5587 5585 5584 5577 5570 5566 5563 5558 5556 5554 5553 5555 5557
5680 5680 5665 5687 5694 5698 5696 5674 5686 5693 5689 5685 5683 5680 5678 5677 5677 5674 5669 5666 5663 5659 5650 5644 5636 5629 5621 5615 5608 5599 5596 5591 5589 5589 5589 5579 5576 5574 5570 5566 5559 5554 5552 5547 5546 5545 5546 5543 5544
5677 5673 5676 5681 5702 5696 5695 5683 5689 5695 5692 5686 5684 5681 5680 5678 5676 5674 5670 5668 5665 5660 5647 5633 5628 5624 5619 5613 5609 5597 5583 5584 5579 5575 5575 5574 5566 5562 5560 5556 5549 5545 5542 5539 5537 5535 5530 5532 5531
5668 5677 5691 5685 5690 5693 5686 5685 5690 5695 5693 5689 5684 5679 5676 5674 5671 5670 5665 5665 5665 5659 5642 5634 5629 5621 5617 5611 5603 5595 5591 5576 5569 5569 5567 5565 5557 5553 5550 5544 5538 5534 5533 5528 5524 5518 5516 5518 5518
5695 5694 5693 5701 5696 5688 5689 5686 5684 5690 5689 5687 5686 5683 5679 5674 5672 5664 5662 5661 5661 5653 5638 5630 5623 5618 5610 5605 5599 5588 5585 5577 5572 5564 5564 5557 5552 5545 5538 5534 5530 5525 5521 5516 5510 5505 5505 5505 5501
5693 5691 5687 5694 5693 5690 5692 5690 5689 5690 5691 5694 5689 5685 5679 5676 5667 5661 5658 5656 5655 5646 5633 5625 5619 5612 5612 5606 5600 5593 5583 5573 5571 5565 5555 5551 5541 5534 5529 5523 5518 5514 5508 5501 5498 5496 5493 5490 5486
5687 5684 5671 5688 5686 5692 5697 5692 5685 5690 5695 5695 5693 5690 5685 5677 5666 5661 5656 5650 5645 5636 5629 5625 5619 5614 5610 5605 5599 5592 5582 5573 5565 5556 5547 5539 5531 5527 5521 5515 5508 5501 5496 5493 5487 5481 5476 5474 5468
5670 5691 5689 5686 5680 5673 5698 5680 5690 5690 5685 5680 5681 5683 5684 5677 5672 5663 5656 5648 5641 5635 5631 5626 5620 5613 5606 5599 5593 5584 5580 5573 5568 5560 5550 5538 5526 5519 5513 5505 5497 5490 5483 5478 5474 5469 5460 5456 5455
5663 5685 5688 5690 5689 5684 5690 5683 5687 5695 5685 5682 5683 5678 5676 5675 5667 5661 5656 5646 5640 5635 5630 5626 5619 5612 5603 5596 5590 5581 5577 5570 5559 5549 5539 5528 5520 5513 5505 5497 5488 5480 5472 5467 5462 5457 5448 5442 5435
5683 5679 5681 5684 5685 5663 5688 5685 5700 5695 5697 5692 5682 5675 5674 5668 5663 5658 5653 5647 5641 5634 5628 5621 5615 5607 5598 5590 5583 5576 5568 5558 5548 5541 5531 5523 5514 5505 5496 5488 5479 5470 5464 5458 5452 5445 5437 5426 5414
5677 5674 5655 5649 5657 5651 5681 5674 5689 5700 5691 5693 5679 5672 5668 5663 5658 5654 5647 5641 5633 5625 5619 5612 5607 5599 5591 5584 5575 5566 5556 5546 5536 5529 5521 5511 5504 5496 5486 5475 5466 5459 5453 5446 5439 5432 5423 5409 5396
5671 5676 5657 5634 5644 5660 5677 5663 5687 5693 5688 5688 5682 5673 5664 5657 5654 5649 5643 5638 5628 5619 5613 5608 5602 5593 5583 5574 5565 5554 5544 5536 5528 5520 5510 5500 5492 5483 5473 5464 5456 5449 5441 5433 5425 5417 5410 5398 5380
5668 5657 5672 5653 5639 5635 5664 5693 5688 5684 5679 5679 5676 5670 5660 5656 5651 5648 5642 5634 5625 5617 5610 5603 5596 5586 5574 5563 5552 5542 5534 5529 5519 5508 5497 5489 5479 5470 5461 5451 5443 5436 5428 5420 5412 5405 5396 5381 5364
5664 5673 5649 5651 5622 5630 5677 5677 5689 5673 5673 5673 5671 5666 5660 5656 5652 5646 5638 5629 5623 5614 5605 5597 5587 5575 5561 5551 5541 5532 5526 5517 5507 5497 5487 5477 5467 5457 5448 5440 5432 5423 5415 5407 5399 5388 5374 5360 5344
5656 5653 5656 5658 5650 5632 5639 5673 5686 5678 5678 5671 5671 5668 5662 5656 5650 5643 5635 5626 5616 5608 5595 5585 5576 5564 5551 5540 5530 5521 5513 5505 5496 5486 5475 5465 5454 5445 5436 5428 5419 5411 5403 5391 5379 5368 5356 5341 5324
5667 5665 5663 5636 5638 5639 5634 5649 5681 5678 5679 5675 5672 5670 5665 5659 5653 5643 5632 5621 5609 5597 5587 5576 5564 5553 5543 5532 5521 5513 5504 5495 5485 5475 5463 5451 5441 5432 5424 5415 5406 5396 5384 5372 5360 5347 5330 5317 5304